Iowa Hill, California
Current Conditions -  °F | °C
As of 10:35 AM on Sunday 21 Dec 2014 (Local Time) from KGOO Reporting Station
Overcast Overcast  
Wind Chill: 50°   Ceiling: 100
Heat Index: 50°   Visibility: 0.25mi
Dew Point: 50°   Wind: 5mph
Humidity: 100%   Direction: 130°SE
Pressure: 30.31"   Gusts: NA
Location:  39.0937°N, 120.92°W
Report Text: KGOO 211835Z AUTO 13004KT 1/4SM OVC001 10/10 A3031 RMK AO1
Loading
Personal Weather Stations






























Interactive Weather Map New forecast layout! Learn more

10-Day Weather Forecast

Advertisements
Track Severe Weather on mobile